Vorticity
4 3 5 10 14 11 8 8 9 8 6 5 4 4 7 4 5 9 8 6 2 8 10 8 6 9 7 5 8 7 11 6 8 6 7 5 5 5 5 6 4 8 7 5 4 7 9
3 3 3 3 4 6 11 11 11 12 12 12 12 12 11 10 8 7 4 2 11 7 6 7 6 8 3 10 7 14 9 8 8 9 6 7 5 5 6 7 6 4 6 6 5 4 9
2 2 2 4 4 5 5 5 3 3 4 4 3 4 6 6 6 8 8 7 5 8 4 7 6 6 6 4 7 6 16 9 6 10 9 5 5 9 9 6 7 6 6 6 7 6 8
4 3 3 3 3 5 4 4 4 5 5 3 3 4 4 5 4 6 8 9 7 6 6 8 3 7 7 6 6 6 2 6 8 4 4 9 4 10 7 6 5 7 4 5 5 8 6
4 4 4 4 4 4 5 6 7 6 6 5 6 6 7 5 6 4 6 6 6 6 8 7 5 4 6 8 10 4 7 9 6 2 7 9 5 8 5 5 5 7 9 7 6 7 7
3 3 4 5 4 6 6 6 6 7 7 8 7 8 10 12 11 11 10 10 10 6 9 7 7 7 4 1 2 5 10 -0 2 15 12 2 5 8 7 7 7 6 7 6 6 4 5
5 4 5 5 8 1 4 -1 2 3 3 4 5 3 5 5 5 4 5 7 7 8 8 9 8 6 3 5 3 6 7 15 16 3 1 6 9 5 6 7 9 10 5 7 6 5 5
4 4 4 4 4 4 3 2 2 1 1 2 4 4 3 3 4 3 3 2 3 3 3 3 5 6 4 3 7 15 11 5 2 2 8 7 10 4 7 12 10 9 10 9 8 7 5
2 3 3 2 9 4 3 2 1 1 2 4 4 4 4 4 3 3 3 4 3 3 4 5 3 -3 5 14 8 6 5 0 4 5 10 9 3 9 9 5 7 9 5 4 6 5 2
5 7 8 8 8 5 6 5 4 6 6 5 5 7 5 5 4 4 5 4 4 4 8 8 15 11 8 3 6 1 5 5 5 11 -1 9 9 6 7 6 10 10 8 6 7 5 3
4 4 5 5 6 8 6 5 8 7 9 5 -0 3 5 6 4 3 4 4 4 3 1 4 -1 -3 3 11 3 9 -0 9 4 9 11 2 6 6 9 10 5 3 6 6 4 4 1
1 2 5 3 3 4 4 5 4 2 2 5 6 9 9 7 4 1 3 5 2 5 4 10 6 1 4 6 10 10 9 10 9 6 7 5 8 7 7 7 7 7 7 5 5 4 5
9 6 4 5 -0 1 2 1 -0 1 -2 -1 2 3 9 6 4 5 6 4 6 3 3 6 8 10 10 11 11 8 6 6 8 8 6 8 6 12 11 9 7 9 11 11 9 9 7
-4 -7 5 8 7 8 3 -3 3 7 6 4 1 1 7 9 6 9 10 14 12 20 11 13 14 10 10 9 8 8 4 5 8 17 16 8 10 8 11 12 12 11 12 9 8 13 11
-3 0 4 3 7 5 -2 0 4 4 3 5 7 2 4 1 5 8 8 4 6 11 12 12 10 12 13 3 3 11 9 7 6 0 7 14 10 6 8 11 11 8 10 8 11 9 10
5 -3 -3 3 4 2 1 5 11 9 10 13 12 6 3 11 12 11 6 8 14 15 12 9 9 10 4 -4 12 4 4 3 0 2 6 6 10 -0 5 5 11 11 13 14 12 10 11
3 6 -5 -5 5 11 10 3 6 9 8 11 6 6 7 7 8 1 -1 11 11 12 15 13 8 5 0 6 0 5 10 5 3 7 2 3 10 10 10 12 11 10 12 16 16 15 15
9 10 3 -1 12 7 9 16 2 12 22 4 4 13 12 8 3 4 12 15 7 2 -1 1 7 2 5 8 11 4 5 2 4 8 7 7 12 12 11 12 13 10 12 5 8 14 10
-6 -11 15 24 13 10 12 8 3 10 1 14 9 8 -7 7 14 14 8 15 2 6 5 10 6 9 6 3 6 5 5 8 11 9 12 11 8 7 9 8 11 11 5 5 3 2 6
0 7 19 1 13 9 6 12 9 6 19 20 11 2 12 17 14 11 2 6 7 5 6 6 3 4 8 9 10 8 10 9 9 11 7 7 7 5 6 9 8 6 7 7 7 4 4
31 28 33 20 9 10 20 13 7 4 -2 6 14 13 12 9 9 9 9 8 6 5 6 6 5 6 7 6 6 11 7 8 8 8 4 4 8 6 10 11 -1 8 10 7 9 16 15
10 17 16 16 4 13 7 13 22 15 28 10 7 12 11 9 6 5 6 7 9 9 3 2 8 9 6 5 12 11 10 6 0 5 8 7 7 8 11 8 7 10 8 7 14 19 19
14 8 9 12 9 15 11 8 1 16 30 16 13 1 -1 12 11 6 7 11 9 2 6 4 6 1 7 10 2 -0 -0 7 15 9 13 8 7 10 6 1 7 11 14 9 14 12 12
10 13 20 9 14 8 8 13 12 -0 12 5 2 7 7 22 12 4 10 -3 -10 1 3 4 -5 9 5 -1 10 14 14 6 8 9 6 11 12 15 10 6 5 10 17 16 18 12 10
14 10 8 14 18 11 11 27 6 7 12 7 22 4 1 -0 -0 -0 -3 1 11 12 4 7 4 12 17 25 18 8 10 16 10 4 6 13 14 8 8 12 12 25 10 11 10 9 16
18 17 24 10 6 10 20 -4 6 29 16 9 5 6 13 18 15 -0 11 12 16 14 11 17 21 24 22 10 -0 12 7 10 10 21 21 10 15 12 16 17 17 13 9 8 7 10 10
14 14 13 20 22 13 4 6 12 3 10 13 6 6 20 8 15 17 14 14 20 23 20 18 15 1 3 15 8 8 16 14 11 10 12 12 16 14 11 7 10 8 4 4 11 11 10
20 14 14 15 16 28 19 16 7 8 15 10 22 36 28 12 25 20 15 21 15 7 8 7 2 9 14 14 15 13 10 9 11 13 15 13 13 9 8 8 2 2 13 17 15 13 10
19 19 19 15 16 16 18 12 7 9 12 1 19 24 25 11 23 5 9 12 14 12 14 17 14 17 13 12 9 9 10 11 9 12 10 14 11 10 -2 1 8 13 15 10 11 10 9
Height
5845 5845 5846 5846 5847 5847 5848 5848 5848 5848 5848 5848 5848 5848 5847 5846 5846 5844 5843 5843 5841 5840 5838 5836 5834 5832 5830 5828 5825 5821 5819 5817 5816 5814 5811 5808 5806 5803 5801 5799 5796 5792 5789 5787 5784 5780 5776
5840 5841 5842 5842 5843 5843 5843 5844 5844 5844 5843 5843 5843 5842 5842 5841 5841 5840 5838 5837 5837 5835 5834 5832 5831 5828 5826 5825 5821 5818 5815 5814 5812 5810 5807 5805 5802 5800 5797 5794 5792 5790 5786 5783 5779 5776 5772
5834 5835 5836 5837 5838 5838 5839 5839 5839 5839 5838 5838 5837 5837 5837 5836 5835 5835 5834 5833 5832 5830 5828 5827 5826 5824 5823 5820 5818 5815 5812 5810 5808 5806 5804 5802 5799 5796 5793 5791 5787 5784 5782 5780 5776 5773 5769
5828 5829 5830 5831 5832 5832 5833 5833 5834 5833 5832 5832 5832 5831 5830 5830 5829 5829 5829 5828 5827 5826 5824 5822 5821 5820 5818 5816 5813 5811 5809 5806 5804 5802 5799 5797 5795 5793 5789 5787 5784 5780 5777 5774 5772 5769 5765
5823 5824 5824 5825 5826 5826 5826 5827 5827 5827 5827 5827 5827 5826 5825 5824 5823 5822 5823 5822 5822 5821 5820 5818 5817 5814 5815 5813 5810 5808 5805 5802 5800 5797 5795 5793 5790 5787 5785 5782 5779 5776 5773 5769 5766 5765 5762
5816 5817 5818 5819 5820 5820 5820 5820 5821 5821 5821 5822 5822 5821 5820 5819 5818 5817 5816 5816 5814 5815 5813 5811 5811 5811 5811 5809 5806 5803 5801 5798 5795 5793 5791 5789 5785 5782 5779 5776 5773 5770 5767 5764 5760 5760 5757
5809 5810 5811 5812 5813 5813 5814 5815 5815 5814 5814 5815 5814 5814 5814 5811 5810 5809 5809 5808 5808 5808 5806 5805 5804 5804 5801 5802 5800 5797 5794 5792 5790 5788 5785 5783 5780 5777 5773 5770 5767 5765 5762 5759 5756 5753 5752
5800 5802 5803 5804 5805 5806 5807 5807 5809 5809 5808 5807 5807 5806 5806 5805 5804 5803 5802 5801 5800 5799 5803 5800 5798 5796 5794 5793 5792 5790 5787 5786 5783 5780 5778 5776 5773 5770 5767 5764 5761 5758 5756 5753 5751 5747 5746
5790 5791 5793 5795 5796 5796 5797 5798 5799 5799 5800 5801 5800 5799 5797 5798 5797 5795 5794 5794 5792 5790 5791 5793 5792 5792 5790 5787 5784 5783 5782 5780 5776 5773 5771 5769 5767 5763 5760 5757 5755 5752 5750 5746 5744 5740 5739
5780 5782 5784 5785 5785 5786 5788 5789 5790 5792 5792 5790 5791 5792 5791 5790 5790 5788 5787 5786 5785 5781 5781 5783 5782 5781 5781 5779 5778 5776 5774 5773 5769 5766 5764 5762 5760 5757 5754 5751 5748 5746 5743 5739 5737 5733 5731
5768 5770 5773 5774 5776 5776 5778 5778 5779 5781 5781 5783 5783 5784 5782 5781 5780 5779 5778 5778 5777 5774 5773 5775 5775 5773 5772 5771 5768 5768 5766 5764 5760 5757 5757 5755 5750 5748 5747 5744 5740 5739 5735 5732 5729 5726 5722
5758 5758 5760 5762 5763 5765 5767 5768 5769 5770 5771 5772 5773 5775 5776 5774 5774 5773 5769 5769 5768 5768 5764 5768 5765 5763 5761 5759 5757 5755 5754 5752 5750 5749 5747 5744 5742 5738 5737 5734 5732 5730 5726 5723 5720 5716 5713
5750 5750 5750 5753 5755 5755 5757 5758 5760 5760 5760 5759 5757 5759 5761 5761 5762 5762 5761 5761 5758 5756 5758 5756 5753 5750 5750 5749 5747 5746 5745 5743 5740 5737 5737 5735 5734 5731 5727 5725 5723 5719 5716 5713 5709 5706 5706
5732 5737 5740 5742 5744 5746 5745 5746 5747 5748 5748 5749 5749 5746 5746 5746 5748 5749 5749 5749 5745 5744 5743 5743 5742 5740 5740 5739 5739 5736 5734 5731 5731 5729 5726 5724 5723 5721 5718 5715 5712 5709 5707 5704 5697 5696 5694
5716 5719 5723 5727 5729 5731 5732 5733 5734 5735 5734 5735 5735 5736 5739 5739 5736 5736 5736 5734 5733 5735 5735 5732 5730 5728 5728 5728 5727 5725 5724 5722 5721 5718 5716 5712 5711 5709 5707 5705 5702 5699 5697 5694 5689 5688 5683
5699 5703 5705 5707 5711 5715 5716 5719 5720 5719 5720 5719 5720 5722 5724 5724 5723 5724 5723 5722 5722 5725 5725 5723 5719 5719 5715 5716 5713 5712 5710 5710 5707 5707 5703 5703 5700 5699 5698 5695 5692 5688 5686 5683 5680 5676 5673
5682 5685 5688 5691 5692 5694 5698 5701 5704 5704 5705 5707 5706 5706 5709 5710 5712 5711 5709 5711 5715 5717 5714 5710 5709 5707 5707 5706 5705 5702 5701 5700 5697 5696 5693 5692 5690 5690 5688 5685 5681 5678 5675 5671 5668 5665 5663
5660 5665 5668 5672 5674 5677 5679 5682 5683 5687 5690 5690 5691 5691 5696 5697 5697 5696 5699 5703 5704 5705 5703 5699 5697 5697 5697 5694 5693 5693 5691 5687 5688 5686 5683 5680 5678 5678 5677 5674 5672 5669 5666 5662 5656 5656 5652
5638 5642 5646 5650 5653 5656 5659 5663 5666 5670 5671 5670 5671 5675 5678 5680 5681 5686 5689 5692 5691 5690 5688 5685 5686 5687 5686 5682 5681 5684 5680 5678 5676 5673 5670 5671 5666 5667 5666 5664 5663 5660 5656 5651 5649 5645 5642
5618 5622 5626 5630 5633 5636 5640 5643 5646 5650 5653 5653 5654 5657 5662 5666 5668 5672 5676 5677 5676 5676 5674 5673 5676 5674 5671 5671 5669 5666 5668 5668 5665 5663 5659 5655 5658 5656 5656 5649 5647 5648 5647 5642 5638 5635 5632
5593 5597 5605 5610 5615 5617 5622 5625 5628 5632 5633 5635 5638 5642 5647 5651 5658 5656 5659 5659 5662 5664 5663 5662 5661 5662 5658 5654 5657 5655 5654 5652 5654 5654 5648 5643 5645 5644 5645 5641 5638 5636 5633 5630 5628 5625 5619
5573 5578 5582 5587 5593 5598 5604 5606 5609 5613 5614 5615 5623 5629 5634 5638 5641 5641 5641 5648 5650 5647 5647 5647 5647 5646 5642 5643 5644 5639 5640 5640 5641 5640 5636 5632 5630 5630 5633 5628 5625 5624 5621 5619 5616 5612 5609
5551 5556 5562 5568 5573 5578 5583 5589 5592 5595 5595 5598 5607 5612 5613 5621 5625 5625 5631 5633 5632 5628 5633 5634 5631 5630 5630 5631 5627 5626 5624 5626 5625 5624 5624 5619 5616 5616 5617 5613 5610 5610 5612 5606 5603 5601 5597
5529 5536 5541 5549 5555 5560 5564 5570 5573 5576 5581 5583 5589 5593 5593 5602 5606 5611 5614 5613 5615 5615 5614 5618 5617 5614 5618 5613 5611 5611 5610 5611 5612 5613 5610 5608 5604 5599 5600 5598 5596 5599 5596 5594 5592 5590 5586
5508 5514 5521 5528 5534 5541 5547 5550 5555 5558 5562 5565 5572 5578 5577 5582 5590 5597 5596 5597 5597 5598 5597 5599 5602 5600 5598 5598 5596 5593 5596 5596 5599 5598 5598 5595 5591 5587 5584 5584 5585 5584 5584 5582 5579 5579 5576
5486 5492 5499 5506 5514 5520 5526 5535 5540 5542 5543 5545 5554 5560 5556 5559 5575 5580 5577 5581 5583 5580 5582 5584 5585 5584 5584 5582 5581 5575 5578 5581 5581 5583 5584 5582 5578 5575 5573 5569 5568 5572 5571 5570 5569 5569 5566
5464 5473 5478 5486 5493 5501 5508 5513 5520 5527 5529 5529 5536 5546 5543 5541 5558 5561 5562 5566 5565 5565 5564 5569 5570 5568 5569 5567 5566 5565 5565 5566 5566 5566 5568 5568 5564 5562 5561 5557 5556 5559 5557 5557 5557 5561 5554
5443 5452 5460 5467 5474 5480 5490 5496 5502 5508 5512 5511 5522 5528 5528 5530 5538 5543 5547 5550 5552 5552 5551 5555 5554 5554 5555 5554 5554 5553 5550 5551 5552 5552 5550 5553 5551 5552 5550 5547 5545 5546 5545 5545 5546 5543 5543
5424 5433 5441 5449 5458 5464 5472 5480 5488 5494 5497 5497 5507 5516 5514 5514 5520 5527 5531 5534 5536 5537 5539 5540 5540 5542 5541 5540 5540 5537 5536 5536 5538 5537 5536 5538 5538 5538 5537 5535 5533 5532 5533 5532 5532 5532 5532